Location: Castillon
(43.0896°N, 0.2156°E)
Time: 02:21:13
(UTC+00:00)

MetOp-B - Pass Details

Date: 16 June 2021
Orbit: 820 x 821 km, 98.7° (Epoch: 04 August)

Event Time Altitude Azimuth Distance (km) Brightness Sun altitude
Exits shadow 21:09:53 11° 177° (S) 2,348 6.0 -12.9°
Maximum altitude 21:15:01 63° 258° (WSW) 912 4.5 -13.5°
Drops below altitude 10° 21:20:21 10° 340° (NNW) 2,426 7.8 -14.1°
Sets 21:22:44 0° 344° (NNW) 3,363 8.7 -14.3°
